THOR ABLESTAR DEB, 480

Orbit data source: Space-Track

THOR ABLESTAR DEB, 480 is space debris in LEO originally from a launch on Thu, 29 Jun 1961 UTC launched from the Air Force Eastern Test Range (AFETR). Debris objects in space refer to the collection of defunct objects orbiting the Earth. Examples of debris include non-operational satellites, rocket bodies, and fragments generated from explosions, collisions, or faulty payload assembly.

Loading next visibility...
Identifier
480, 1961-015FS
Orbit
LEO
Country
Flag of USUS
Related business
Manufacturer
Unknown
Mission
Spacecraft
Bus & Motor
Unknown
Mass
Unknown
Launch date (UTC)
1961-06-29 (64 years ago)
Launch vehicle
Unknown
Launch site
Air Force Eastern Test Range (AFETR)
Object type
Payload
Rocket body
Debris
Shape & HBR
Unknown shape, 0.2 m
Radar Cross Section
Small (<0.1 m²)

Expand to show TLE details & history
Last TLE update: 23 hours ago

TLE from 23 hours ago
0 THOR ABLESTAR DEB
1 00480U 61015FS  25286.37004544  .00002962  00000-0  90585-3 0  9994
2 00480  66.2395  11.7692 0086360 294.5841  64.6278 14.41118882319236
Epoch: 2025-10-13T08:52Z
TLE epoch observation values (Epoch: 2025-10-13T08:52:51.926Z)
Latitude
-0.00002°
Longitude
-143.62097°
Altitude
730.924 km
Speed
7.504 km/s
True Right ascension
00h 47m 04s
True Declination
0° 00' 00"
Sunlit
Object was in full shadow at epoch
Visualization orbit readout
Latitude
Unknown
Longitude
Unknown
Altitude
Unknown
Speed
Unknown
Apparent Right ascension
Unknown
Apparent Declination
Unknown
Sunlit
N/A
Visualization observer readout
Local Sidereal Time
02:00:20
Azimuth
Unknown
Elevation
Unknown
Doppler factor
Unknown
Orbital elements
Apogee altitude
814.811 km
Perigee altitude
691.638 km
Semi-major axis
7,131.362 km
Eccentricity
0.00864
Inclination
66.2395°
RAAN
11.7692°
Arg. of periapsis
294.5841°
True anomaly
65.52608°
Mean anomaly
64.6278°
Eccentric anomaly
65.07653°
Mean motion
3.604 °/min
Orbital period
99.89 mins
BSTAR
0.00090585

Documentation

Showing up to 5 results
|